Location: Buchberg
(46.9333°N, 15.8500°E)
Time: 19:59:23
(UTC+00:00)

NOSS 3-2 (A) - Pass Details

Date: 14 July 2020
Orbit: 798 x 1410 km, 63.4° (Epoch: 05 August)

Event Time Altitude Azimuth Distance (km) Brightness Sun altitude
Exits shadow 02:21:26 - 198° (SSW) 2,776 5.3 -8.1°
Reaches altitude 10° 02:22:19 10° 195° (SSW) 2,452 5.1 -8.0°
Maximum altitude 02:27:46 52° 120° (ESE) 1,111 4.0 -7.3°
Drops below altitude 10° 02:33:58 10° 46° (NE) 2,787 7.8 -6.6°
Sets 02:36:49 0° 42° (NE) 3,839 9.1 -6.2°
